Time,TemperatureF,DewpointF,PressureIn,WindDirection,WindDirectionDegrees,WindSpeedMPH,WindSpeedGustMPH,Humidity,HourlyPrecipIn,Conditions,Clouds,dailyrainin,SoftwareType,DateUTC
2013-08-20 00:00:00,62.0,60.8,30.09,WNW,300,0.0,0.0,96,0.00,,---,0.00,VWS V14.01,2013-08-20 04:00:00,
2013-08-20 00:01:00,62.0,60.8,30.09,WNW,300,0.0,0.0,96,0.00,,---,0.00,VWS V14.01,2013-08-20 04:01:00,
2013-08-20 00:06:00,61.8,60.7,30.09,WNW,300,0.0,0.0,96,0.00,,---,0.00,VWS V14.01,2013-08-20 04:06:00,
2013-08-20 00:11:00,61.7,60.5,30.09,WNW,300,0.0,0.0,96,0.00,,---,0.00,VWS V14.01,2013-08-20 04:11:00,
2013-08-20 00:16:00,61.9,61.0,30.10,WNW,300,0.0,0.0,97,0.00,,---,0.00,VWS V14.01,2013-08-20 04:16:00,
2013-08-20 00:21:00,62.0,61.1,30.09,WNW,300,0.0,0.0,97,0.00,,---,0.00,VWS V14.01,2013-08-20 04:21:00,
2013-08-20 00:26:00,62.0,61.1,30.10,WNW,300,0.0,0.0,97,0.00,,---,0.00,VWS V14.01,2013-08-20 04:26:00,
2013-08-20 00:30:00,62.5,61.0,30.09,WNW,300,0.0,0.0,95,0.00,,---,0.01,VWS V14.01,2013-08-20 04:30:00,
2013-08-20 00:31:00,61.7,60.5,30.09,WNW,300,0.0,0.0,96,0.00,,---,0.00,VWS V14.01,2013-08-20 04:31:00,
2013-08-20 00:36:00,61.5,60.6,30.10,WNW,300,0.0,0.0,97,0.00,,---,0.00,VWS V14.01,2013-08-20 04:36:00,
2013-08-20 00:41:00,61.6,60.7,30.09,WNW,300,0.0,0.0,97,0.00,,---,0.00,VWS V14.01,2013-08-20 04:41:00,
2013-08-20 00:46:00,61.4,60.5,30.09,WNW,300,0.0,0.0,97,0.00,,---,0.00,VWS V14.01,2013-08-20 04:46:00,
2013-08-20 00:51:00,61.6,60.7,30.10,WNW,300,0.0,0.0,97,0.00,,---,0.00,VWS V14.01,2013-08-20 04:51:00,
2013-08-20 00:56:00,61.6,60.7,30.10,WNW,300,0.0,0.0,97,0.00,,---,0.00,VWS V14.01,2013-08-20 04:56:00,
2013-08-20 01:00:00,62.0,60.8,30.09,WNW,300,0.0,1.0,96,0.00,,---,0.00,VWS V14.01,2013-08-20 05:00:00,
2013-08-20 01:01:00,61.6,60.7,30.10,WNW,300,0.0,0.0,97,0.00,,---,0.00,VWS V14.01,2013-08-20 05:01:00,
2013-08-20 01:06:00,61.5,60.6,30.10,WNW,300,0.0,0.0,97,0.00,,---,0.00,VWS V14.01,2013-08-20 05:06:00,
2013-08-20 01:11:00,61.4,60.5,30.09,WNW,300,0.0,0.0,97,0.00,,---,0.00,VWS V14.01,2013-08-20 05:11:00,
2013-08-20 01:16:00,61.3,60.4,30.10,WNW,300,0.0,0.0,97,0.00,,---,0.00,VWS V14.01,2013-08-20 05:16:00,
2013-08-20 01:21:00,61.6,61.0,30.10,WNW,300,0.0,0.0,98,0.00,,---,0.00,VWS V14.01,2013-08-20 05:21:00,
2013-08-20 01:26:00,61.4,60.5,30.10,WNW,300,0.0,0.0,97,0.00,,---,0.00,VWS V14.01,2013-08-20 05:26:00,
2013-08-20 01:30:00,61.8,60.9,30.09,WNW,300,0.0,0.0,97,0.00,,---,0.00,VWS V14.01,2013-08-20 05:30:00,
2013-08-20 01:31:00,61.2,60.3,30.09,WNW,300,0.0,0.0,97,0.00,,---,0.00,VWS V14.01,2013-08-20 05:31:00,
2013-08-20 01:36:00,61.2,60.6,30.09,WNW,300,0.0,0.0,98,0.00,,---,0.00,VWS V14.01,2013-08-20 05:36:00,
2013-08-20 01:41:00,61.3,60.7,30.09,WNW,300,0.0,0.0,98,0.00,,---,0.00,VWS V14.01,2013-08-20 05:41:00,
2013-08-20 01:46:00,61.1,60.5,30.09,WNW,300,0.0,0.0,98,0.00,,---,0.00,VWS V14.01,2013-08-20 05:46:00,
2013-08-20 01:51:00,61.0,60.4,30.09,WNW,300,0.0,0.0,98,0.00,,---,0.00,VWS V14.01,2013-08-20 05:51:00,
2013-08-20 01:56:00,61.1,60.5,30.09,WNW,300,0.0,0.0,98,0.00,,---,0.00,VWS V14.01,2013-08-20 05:56:00,
2013-08-20 02:00:00,61.1,60.5,30.09,North,360,0.0,1.0,98,0.00,,---,0.00,VWS V14.01,2013-08-20 06:00:00,
2013-08-20 02:01:00,61.1,60.5,30.09,North,360,0.0,0.0,98,0.00,,---,0.00,VWS V14.01,2013-08-20 06:01:00,
2013-08-20 02:06:00,61.1,60.5,30.09,North,360,0.0,0.0,98,0.00,,---,0.00,VWS V14.01,2013-08-20 06:06:00,
2013-08-20 02:11:00,61.1,60.5,30.09,North,360,0.0,0.0,98,0.00,,---,0.00,VWS V14.01,2013-08-20 06:11:00,
2013-08-20 02:16:00,60.9,60.3,30.09,North,360,0.0,1.0,98,0.00,,---,0.00,VWS V14.01,2013-08-20 06:16:00,
2013-08-20 02:21:00,60.8,60.2,30.09,North,360,0.0,1.0,98,0.00,,---,0.00,VWS V14.01,2013-08-20 06:21:00,
2013-08-20 02:26:00,60.8,60.2,30.09,North,1,0.0,1.0,98,0.00,,---,0.00,VWS V14.01,2013-08-20 06:26:00,
2013-08-20 02:30:00,61.3,60.4,30.09,WNW,300,0.0,0.0,97,0.00,,---,0.00,VWS V14.01,2013-08-20 06:30:00,
2013-08-20 02:31:00,60.7,60.1,30.09,North,1,0.0,0.0,98,0.00,,---,0.00,VWS V14.01,2013-08-20 06:31:00,
2013-08-20 02:36:00,60.7,60.1,30.09,North,1,0.0,1.0,98,0.00,,---,0.00,VWS V14.01,2013-08-20 06:36:00,
2013-08-20 02:41:00,60.7,60.1,30.09,North,1,0.0,1.0,98,0.00,,---,0.00,VWS V14.01,2013-08-20 06:41:00,
2013-08-20 02:46:00,60.7,60.1,30.09,North,1,0.0,1.0,98,0.00,,---,0.00,VWS V14.01,2013-08-20 06:46:00,
2013-08-20 02:51:00,60.6,60.0,30.09,North,1,0.0,1.0,98,0.00,,---,0.00,VWS V14.01,2013-08-20 06:51:00,
2013-08-20 02:56:00,60.5,59.9,30.10,North,1,0.0,1.0,98,0.00,,---,0.00,VWS V14.01,2013-08-20 06:56:00,
2013-08-20 03:00:00,61.1,60.5,30.09,North,360,0.0,1.0,98,0.00,,---,0.00,VWS V14.01,2013-08-20 07:00:00,
2013-08-20 03:01:00,60.3,59.7,30.10,North,352,0.0,0.0,98,0.00,,---,0.00,VWS V14.01,2013-08-20 07:01:00,
2013-08-20 03:06:00,60.3,59.7,30.10,North,352,0.0,0.0,98,0.00,,---,0.00,VWS V14.01,2013-08-20 07:06:00,
2013-08-20 03:11:00,60.4,59.8,30.10,NNW,346,0.0,1.0,98,0.00,,---,0.00,VWS V14.01,2013-08-20 07:11:00,
2013-08-20 03:16:00,60.5,59.9,30.09,NNW,346,0.0,1.0,98,0.00,,---,0.00,VWS V14.01,2013-08-20 07:16:00,
2013-08-20 03:21:00,60.5,59.9,30.09,WSW,249,0.0,1.0,98,0.00,,---,0.00,VWS V14.01,2013-08-20 07:21:00,
2013-08-20 03:26:00,60.6,60.0,30.09,WSW,249,0.0,1.0,98,0.00,,---,0.00,VWS V14.01,2013-08-20 07:26:00,
2013-08-20 03:30:00,60.7,60.1,30.09,North,1,0.0,1.0,98,0.00,,---,0.00,VWS V14.01,2013-08-20 07:30:00,
2013-08-20 03:31:00,60.7,60.1,30.10,WSW,249,0.0,0.0,98,0.00,,---,0.00,VWS V14.01,2013-08-20 07:31:00,
2013-08-20 03:36:00,60.8,60.2,30.10,WSW,249,0.0,1.0,98,0.00,,---,0.00,VWS V14.01,2013-08-20 07:36:00,
2013-08-20 03:41:00,60.8,60.2,30.10,WSW,249,0.0,1.0,98,0.00,,---,0.00,VWS V14.01,2013-08-20 07:41:00,
2013-08-20 03:46:00,60.7,60.1,30.10,WNW,293,0.0,1.0,98,0.00,,---,0.00,VWS V14.01,2013-08-20 07:46:00,
2013-08-20 03:51:00,60.7,60.1,30.10,WNW,293,0.0,1.0,98,0.00,,---,0.00,VWS V14.01,2013-08-20 07:51:00,
2013-08-20 03:56:00,60.6,60.0,30.10,WNW,293,0.0,1.0,98,0.00,,---,0.00,VWS V14.01,2013-08-20 07:56:00,
2013-08-20 04:00:00,60.3,59.7,30.10,North,352,0.0,1.0,98,0.00,,---,0.00,VWS V14.01,2013-08-20 08:00:00,
2013-08-20 04:01:00,60.6,60.0,30.09,WNW,293,0.0,0.0,98,0.00,,---,0.00,VWS V14.01,2013-08-20 08:01:00,
2013-08-20 04:06:00,60.6,60.0,30.09,WNW,293,0.0,0.0,98,0.00,,---,0.00,VWS V14.01,2013-08-20 08:06:00,
2013-08-20 04:11:00,60.6,60.0,30.09,WNW,293,0.0,0.0,98,0.00,,---,0.00,VWS V14.01,2013-08-20 08:11:00,
2013-08-20 04:16:00,60.6,60.0,30.10,WNW,293,0.0,0.0,98,0.00,,---,0.00,VWS V14.01,2013-08-20 08:16:00,
2013-08-20 04:21:00,60.6,60.0,30.10,WNW,293,0.0,0.0,98,0.00,,---,0.00,VWS V14.01,2013-08-20 08:21:00,
2013-08-20 04:26:00,60.6,60.0,30.10,WNW,293,0.0,0.0,98,0.00,,---,0.00,VWS V14.01,2013-08-20 08:26:00,
2013-08-20 04:30:00,60.7,60.1,30.10,WSW,248,0.0,1.0,98,0.00,,---,0.00,VWS V14.01,2013-08-20 08:30:00,
2013-08-20 04:31:00,60.6,60.0,30.10,WNW,293,0.0,0.0,98,0.00,,---,0.00,VWS V14.01,2013-08-20 08:31:00,
2013-08-20 04:36:00,60.6,60.0,30.10,WNW,293,0.0,0.0,98,0.00,,---,0.00,VWS V14.01,2013-08-20 08:36:00,
2013-08-20 04:41:00,60.5,59.9,30.10,WNW,293,0.0,0.0,98,0.00,,---,0.00,VWS V14.01,2013-08-20 08:41:00,
2013-08-20 04:46:00,60.5,59.9,30.10,WNW,293,0.0,0.0,98,0.00,,---,0.00,VWS V14.01,2013-08-20 08:46:00,
2013-08-20 04:51:00,60.5,59.9,30.10,WNW,294,0.0,1.0,98,0.00,,---,0.00,VWS V14.01,2013-08-20 08:51:00,
2013-08-20 04:56:00,60.5,59.9,30.10,WNW,294,0.0,1.0,98,0.00,,---,0.00,VWS V14.01,2013-08-20 08:56:00,
2013-08-20 05:00:00,60.6,60.0,30.09,WNW,293,0.0,1.0,98,0.00,,---,0.00,VWS V14.01,2013-08-20 09:00:00,
2013-08-20 05:01:00,60.5,59.9,30.10,WNW,294,0.0,0.0,98,0.00,,---,0.00,VWS V14.01,2013-08-20 09:01:00,
2013-08-20 05:06:00,60.5,59.9,30.10,WNW,294,0.0,1.0,98,0.00,,---,0.00,VWS V14.01,2013-08-20 09:06:00,
2013-08-20 05:11:00,60.5,59.9,30.10,WNW,294,0.0,1.0,98,0.00,,---,0.00,VWS V14.01,2013-08-20 09:11:00,
2013-08-20 05:16:00,60.4,59.8,30.11,WNW,294,0.0,1.0,98,0.00,,---,0.00,VWS V14.01,2013-08-20 09:16:00,
2013-08-20 05:21:00,60.4,59.8,30.11,WNW,294,0.0,1.0,98,0.00,,---,0.00,VWS V14.01,2013-08-20 09:21:00,
2013-08-20 05:26:00,60.4,59.8,30.11,WNW,294,0.0,1.0,98,0.00,,---,0.00,VWS V14.01,2013-08-20 09:26:00,
2013-08-20 05:30:00,60.6,60.0,30.10,WNW,293,0.0,0.0,98,0.00,,---,0.00,VWS V14.01,2013-08-20 09:30:00,
2013-08-20 05:31:00,60.5,59.9,30.11,WNW,294,0.0,0.0,98,0.00,,---,0.00,VWS V14.01,2013-08-20 09:31:00,
2013-08-20 05:36:00,60.5,59.9,30.11,WNW,294,0.0,0.0,98,0.00,,---,0.00,VWS V14.01,2013-08-20 09:36:00,
2013-08-20 05:41:00,60.4,59.8,30.11,WNW,294,0.0,1.0,98,0.00,,---,0.00,VWS V14.01,2013-08-20 09:41:00,
2013-08-20 05:46:00,60.4,59.8,30.11,WNW,294,0.0,1.0,98,0.00,,---,0.00,VWS V14.01,2013-08-20 09:46:00,
2013-08-20 05:51:00,60.4,59.8,30.11,WNW,294,0.0,1.0,98,0.00,,---,0.00,VWS V14.01,2013-08-20 09:51:00,
2013-08-20 05:56:00,60.4,59.8,30.12,WNW,294,0.0,1.0,98,0.00,,---,0.00,VWS V14.01,2013-08-20 09:56:00,
2013-08-20 06:00:00,60.5,59.9,30.10,WNW,294,0.0,1.0,98,0.00,,---,0.00,VWS V14.01,2013-08-20 10:00:00,
2013-08-20 06:01:00,60.5,60.2,30.12,WNW,294,0.0,0.0,99,0.00,,---,0.00,VWS V14.01,2013-08-20 10:01:00,
2013-08-20 06:06:00,60.5,60.2,30.12,WNW,294,0.0,0.0,99,0.00,,---,0.00,VWS V14.01,2013-08-20 10:06:00,
2013-08-20 06:11:00,60.5,60.2,30.13,NW,311,0.0,0.0,99,0.00,,---,0.00,VWS V14.01,2013-08-20 10:11:00,
2013-08-20 06:16:00,60.5,60.2,30.13,NW,311,0.0,0.0,99,0.00,,---,0.00,VWS V14.01,2013-08-20 10:16:00,
2013-08-20 06:21:00,60.5,60.2,30.13,NW,311,0.0,0.0,99,0.00,,---,0.00,VWS V14.01,2013-08-20 10:21:00,
2013-08-20 06:26:00,60.5,60.2,30.13,NW,311,0.0,0.0,99,0.00,,---,0.00,VWS V14.01,2013-08-20 10:26:00,
2013-08-20 06:30:00,60.4,59.8,30.11,WNW,294,0.0,1.0,98,0.00,,---,0.00,VWS V14.01,2013-08-20 10:30:00,
2013-08-20 06:31:00,60.5,60.2,30.13,NW,311,0.0,0.0,99,0.00,,---,0.00,VWS V14.01,2013-08-20 10:31:00,
2013-08-20 06:36:00,60.6,60.3,30.14,North,11,0.0,1.0,99,0.00,,---,0.00,VWS V14.01,2013-08-20 10:36:00,
2013-08-20 06:41:00,60.6,60.3,30.14,NNE,12,0.0,1.0,99,0.00,,---,0.00,VWS V14.01,2013-08-20 10:41:00,
2013-08-20 06:46:00,60.6,60.3,30.14,NNE,12,0.0,1.0,99,0.00,,---,0.00,VWS V14.01,2013-08-20 10:46:00,
2013-08-20 06:51:00,60.6,60.3,30.14,NNE,12,0.0,1.0,99,0.00,,---,0.00,VWS V14.01,2013-08-20 10:51:00,
2013-08-20 06:56:00,60.6,60.3,30.14,NNE,12,0.0,1.0,99,0.00,,---,0.00,VWS V14.01,2013-08-20 10:56:00,
2013-08-20 07:00:00,60.4,60.1,30.12,WNW,294,0.0,1.0,99,0.00,,---,0.00,VWS V14.01,2013-08-20 11:00:00,
2013-08-20 07:01:00,60.7,60.4,30.15,NNE,12,0.0,1.0,99,0.00,,---,0.00,VWS V14.01,2013-08-20 11:01:00,
2013-08-20 07:06:00,60.6,60.3,30.15,NNE,12,0.0,1.0,99,0.00,,---,0.00,VWS V14.01,2013-08-20 11:06:00,
2013-08-20 07:11:00,60.7,60.4,30.15,NNE,12,0.0,1.0,99,0.00,,---,0.00,VWS V14.01,2013-08-20 11:11:00,
2013-08-20 07:16:00,60.5,60.2,30.15,NNE,12,0.0,1.0,99,0.00,,---,0.00,VWS V14.01,2013-08-20 11:16:00,
2013-08-20 07:21:00,60.7,60.4,30.15,NNE,12,0.0,1.0,99,0.00,,---,0.00,VWS V14.01,2013-08-20 11:21:00,
2013-08-20 07:26:00,60.9,60.6,30.15,NNE,12,0.0,1.0,99,0.00,,---,0.00,VWS V14.01,2013-08-20 11:26:00,
2013-08-20 07:30:00,60.5,60.2,30.13,NW,311,0.0,0.0,99,0.00,,---,0.00,VWS V14.01,2013-08-20 11:30:00,
2013-08-20 07:31:00,60.9,60.6,30.15,NNE,33,0.0,1.0,99,0.00,,---,0.00,VWS V14.01,2013-08-20 11:31:00,
2013-08-20 07:36:00,61.0,60.7,30.16,NNE,33,0.0,1.0,99,0.00,,---,0.00,VWS V14.01,2013-08-20 11:36:00,
2013-08-20 07:41:00,61.0,60.7,30.15,NNE,33,0.0,1.0,99,0.00,,---,0.00,VWS V14.01,2013-08-20 11:41:00,
2013-08-20 07:46:00,61.2,60.9,30.16,NNE,33,0.0,1.0,99,0.00,,---,0.00,VWS V14.01,2013-08-20 11:46:00,
2013-08-20 07:51:00,61.3,61.0,30.16,NNE,33,0.0,1.0,99,0.00,,---,0.00,VWS V14.01,2013-08-20 11:51:00,
2013-08-20 07:56:00,61.2,60.9,30.16,NE,37,0.0,1.0,99,0.00,,---,0.00,VWS V14.01,2013-08-20 11:56:00,
2013-08-20 08:00:00,60.7,60.4,30.15,NNE,12,0.0,1.0,99,0.00,,---,0.00,VWS V14.01,2013-08-20 12:00:00,
2013-08-20 08:01:00,61.3,61.0,30.16,NE,36,0.0,0.0,99,0.00,,---,0.00,VWS V14.01,2013-08-20 12:01:00,
2013-08-20 08:06:00,61.5,61.2,30.16,NE,37,0.0,0.0,99,0.00,,---,0.00,VWS V14.01,2013-08-20 12:06:00,
2013-08-20 08:11:00,61.6,61.3,30.16,NE,37,0.0,1.0,99,0.00,,---,0.00,VWS V14.01,2013-08-20 12:11:00,
2013-08-20 08:16:00,61.7,61.4,30.16,South,181,0.0,1.0,99,0.00,,---,0.00,VWS V14.01,2013-08-20 12:16:00,
2013-08-20 08:21:00,61.8,61.5,30.16,South,176,0.0,1.0,99,0.00,,---,0.00,VWS V14.01,2013-08-20 12:21:00,
2013-08-20 08:26:00,62.0,61.7,30.16,SSE,157,0.0,1.0,99,0.00,,---,0.00,VWS V14.01,2013-08-20 12:26:00,
2013-08-20 08:30:00,60.9,60.6,30.15,NNE,33,0.0,1.0,99,0.00,,---,0.00,VWS V14.01,2013-08-20 12:30:00,
2013-08-20 08:31:00,62.0,61.7,30.17,ESE,117,0.0,0.0,99,0.00,,---,0.00,VWS V14.01,2013-08-20 12:31:00,
2013-08-20 08:36:00,62.3,62.0,30.17,ESE,119,0.0,1.0,99,0.00,,---,0.00,VWS V14.01,2013-08-20 12:36:00,
2013-08-20 08:41:00,62.5,62.2,30.17,ENE,71,0.0,1.0,99,0.00,,---,0.00,VWS V14.01,2013-08-20 12:41:00,
2013-08-20 08:46:00,62.6,62.3,30.17,NE,44,2.0,2.0,99,0.00,,---,0.00,VWS V14.01,2013-08-20 12:46:00,
2013-08-20 08:51:00,62.6,62.0,30.17,NE,36,1.0,2.0,98,0.00,,---,0.00,VWS V14.01,2013-08-20 12:51:00,
2013-08-20 08:56:00,62.8,62.5,30.17,NE,35,2.0,2.0,99,0.00,,---,0.00,VWS V14.01,2013-08-20 12:56:00,
2013-08-20 09:00:00,63.0,62.4,30.17,NNE,23,0.0,1.0,98,0.00,,---,0.00,VWS V14.01,2013-08-20 13:00:00,
2013-08-20 09:05:00,63.4,62.8,30.17,SE,125,0.0,1.0,98,0.00,,---,0.00,VWS V14.01,2013-08-20 13:05:00,
2013-08-20 09:11:00,63.8,63.2,30.17,ESE,119,0.0,1.0,98,0.00,,---,0.00,VWS V14.01,2013-08-20 13:11:00,
2013-08-20 09:16:00,64.0,63.4,30.17,ESE,108,0.0,1.0,98,0.00,,---,0.00,VWS V14.01,2013-08-20 13:16:00,
2013-08-20 09:20:00,64.2,63.3,30.17,NE,49,0.0,2.0,97,0.00,,---,0.00,VWS V14.01,2013-08-20 13:20:00,
2013-08-20 09:25:00,64.5,63.3,30.17,NE,47,0.0,2.0,96,0.00,,---,0.00,VWS V14.01,2013-08-20 13:25:00,
2013-08-20 09:30:00,64.7,63.5,30.17,NNE,25,0.0,1.0,96,0.00,,---,0.00,VWS V14.01,2013-08-20 13:30:00,
2013-08-20 09:35:00,65.0,63.5,30.17,NE,41,1.0,3.0,95,0.00,,---,0.00,VWS V14.01,2013-08-20 13:35:00,
2013-08-20 09:40:00,65.4,63.9,30.17,NNE,26,0.0,3.0,95,0.00,,---,0.00,VWS V14.01,2013-08-20 13:40:00,
2013-08-20 09:45:00,65.9,64.1,30.18,NNE,30,1.0,3.0,94,0.00,,---,0.00,VWS V14.01,2013-08-20 13:45:00,
2013-08-20 09:50:00,66.5,64.7,30.18,East,80,1.0,3.0,94,0.00,,---,0.00,VWS V14.01,2013-08-20 13:50:00,
2013-08-20 09:55:00,66.9,64.5,30.18,ENE,77,0.0,3.0,92,0.00,,---,0.00,VWS V14.01,2013-08-20 13:55:00,
2013-08-20 10:00:00,67.2,64.5,30.18,NNE,26,0.0,0.0,91,0.00,,---,0.00,VWS V14.01,2013-08-20 14:00:00,
2013-08-20 10:05:00,68.1,65.4,30.18,NE,56,0.0,3.0,91,0.00,,---,0.00,VWS V14.01,2013-08-20 14:05:00,
2013-08-20 10:10:00,68.6,65.2,30.18,ESE,121,0.0,3.0,89,0.00,,---,0.00,VWS V14.01,2013-08-20 14:10:00,
2013-08-20 10:15:00,69.2,65.8,30.18,NE,34,0.0,3.0,89,0.00,,---,0.00,VWS V14.01,2013-08-20 14:15:00,
2013-08-20 10:20:00,69.9,65.9,30.18,NNE,22,0.0,3.0,87,0.00,,---,0.00,VWS V14.01,2013-08-20 14:20:00,
2013-08-20 10:25:00,70.7,66.7,30.18,SSE,168,0.0,3.0,87,0.00,,---,0.00,VWS V14.01,2013-08-20 14:25:00,
2013-08-20 10:30:00,71.2,66.1,30.18,NE,39,1.0,2.0,84,0.00,,---,0.00,VWS V14.01,2013-08-20 14:30:00,
2013-08-20 10:35:00,71.3,66.6,30.18,NE,38,0.0,2.0,85,0.00,,---,0.00,VWS V14.01,2013-08-20 14:35:00,
2013-08-20 10:40:00,71.7,66.6,30.18,NE,43,0.0,3.0,84,0.00,,---,0.00,VWS V14.01,2013-08-20 14:40:00,
2013-08-20 10:45:00,72.7,66.5,30.18,East,94,0.0,3.0,81,0.00,,---,0.00,VWS V14.01,2013-08-20 14:45:00,
2013-08-20 10:50:00,73.0,66.8,30.18,NE,56,2.0,3.0,81,0.00,,---,0.00,VWS V14.01,2013-08-20 14:50:00,
2013-08-20 10:55:00,73.2,66.7,30.18,NNE,22,4.0,4.0,80,0.00,,---,0.00,VWS V14.01,2013-08-20 14:55:00,
2013-08-20 11:00:00,73.5,67.0,30.17,NNE,27,2.0,2.0,80,0.00,,---,0.00,VWS V14.01,2013-08-20 15:00:00,
2013-08-20 11:05:00,74.4,66.7,30.17,NE,51,0.0,2.0,77,0.00,,---,0.00,VWS V14.01,2013-08-20 15:05:00,
2013-08-20 11:10:00,75.1,67.4,30.17,NW,323,0.0,2.0,77,0.00,,---,0.00,VWS V14.01,2013-08-20 15:10:00,
2013-08-20 11:15:00,76.4,67.9,30.17,WNW,290,0.0,2.0,75,0.00,,---,0.00,VWS V14.01,2013-08-20 15:15:00,
2013-08-20 11:20:00,77.2,67.5,30.17,South,169,0.0,3.0,72,0.00,,---,0.00,VWS V14.01,2013-08-20 15:20:00,
2013-08-20 11:25:00,76.8,67.1,30.17,ESE,107,2.0,3.0,72,0.00,,---,0.00,VWS V14.01,2013-08-20 15:25:00,
2013-08-20 11:30:00,77.0,67.3,30.17,East,98,0.0,0.0,72,0.00,,---,0.00,VWS V14.01,2013-08-20 15:30:00,
2013-08-20 11:35:00,78.1,65.8,30.17,NW,326,0.0,2.0,66,0.00,,---,0.00,VWS V14.01,2013-08-20 15:35:00,
2013-08-20 11:40:00,79.0,66.2,30.17,North,355,0.0,2.0,65,0.00,,---,0.00,VWS V14.01,2013-08-20 15:40:00,
2013-08-20 11:45:00,78.8,63.8,30.16,NE,50,1.0,4.0,60,0.00,,---,0.00,VWS V14.01,2013-08-20 15:45:00,
2013-08-20 11:50:00,78.8,65.2,30.16,NNW,338,2.0,4.0,63,0.00,,---,0.00,VWS V14.01,2013-08-20 15:50:00,
2013-08-20 11:55:00,79.6,65.0,30.16,SW,228,0.0,4.0,61,0.00,,---,0.00,VWS V14.01,2013-08-20 15:55:00,
2013-08-20 12:00:00,80.2,65.1,30.16,West,269,1.0,3.0,60,0.00,,---,0.00,VWS V14.01,2013-08-20 16:00:00,
2013-08-20 12:05:00,80.5,63.9,30.16,SW,222,1.0,5.0,57,0.00,,---,0.00,VWS V14.01,2013-08-20 16:05:00,
2013-08-20 12:10:00,80.5,63.9,30.16,NW,319,1.0,5.0,57,0.00,,---,0.00,VWS V14.01,2013-08-20 16:10:00,
2013-08-20 12:15:00,80.6,63.5,30.15,NW,323,1.0,5.0,56,0.00,,---,0.00,VWS V14.01,2013-08-20 16:15:00,
2013-08-20 12:20:00,80.6,64.0,30.15,SW,227,1.0,5.0,57,0.00,,---,0.00,VWS V14.01,2013-08-20 16:20:00,
2013-08-20 12:25:00,81.6,63.9,30.15,WNW,301,1.0,5.0,55,0.00,,---,0.00,VWS V14.01,2013-08-20 16:25:00,
2013-08-20 12:30:00,81.7,60.7,30.15,NW,316,1.0,1.0,49,0.00,,---,0.00,VWS V14.01,2013-08-20 16:30:00,
2013-08-20 12:35:00,81.2,60.8,30.15,NNW,327,0.0,3.0,50,0.00,,---,0.00,VWS V14.01,2013-08-20 16:35:00,
2013-08-20 12:40:00,81.0,60.1,30.15,West,276,1.0,3.0,49,0.00,,---,0.00,VWS V14.01,2013-08-20 16:40:00,
2013-08-20 12:45:00,81.6,62.3,30.15,West,266,2.0,4.0,52,0.00,,---,0.00,VWS V14.01,2013-08-20 16:45:00,
2013-08-20 12:50:00,82.1,61.1,30.15,SW,226,3.0,4.0,49,0.00,,---,0.00,VWS V14.01,2013-08-20 16:50:00,
2013-08-20 12:55:00,82.5,61.4,30.15,NW,315,3.0,4.0,49,0.00,,---,0.00,VWS V14.01,2013-08-20 16:55:00,
2013-08-20 13:00:00,82.3,61.8,30.15,SSW,205,0.0,1.0,50,0.00,,---,0.00,VWS V14.01,2013-08-20 17:00:00,
2013-08-20 13:05:00,81.9,59.1,30.15,NW,319,4.0,7.0,46,0.00,,---,0.00,VWS V14.01,2013-08-20 17:05:00,
2013-08-20 13:10:00,81.5,61.1,30.15,NW,322,2.0,7.0,50,0.00,,---,0.00,VWS V14.01,2013-08-20 17:10:00,
2013-08-20 13:15:00,81.7,60.7,30.14,North,4,1.0,7.0,49,0.00,,---,0.00,VWS V14.01,2013-08-20 17:15:00,
2013-08-20 13:20:00,81.7,60.1,30.14,NNW,330,3.0,7.0,48,0.00,,---,0.00,VWS V14.01,2013-08-20 17:20:00,
2013-08-20 13:25:00,81.9,60.3,30.14,NW,311,2.0,7.0,48,0.00,,---,0.00,VWS V14.01,2013-08-20 17:25:00,
2013-08-20 13:30:00,82.2,59.4,30.14,North,349,1.0,1.0,46,0.00,,---,0.00,VWS V14.01,2013-08-20 17:30:00,
2013-08-20 13:35:00,82.3,58.9,30.14,WNW,302,0.0,3.0,45,0.00,,---,0.00,VWS V14.01,2013-08-20 17:35:00,
2013-08-20 13:40:00,82.9,60.0,30.14,SW,233,0.0,3.0,46,0.00,,---,0.00,VWS V14.01,2013-08-20 17:40:00,
2013-08-20 13:45:00,83.4,59.2,30.14,ESE,121,4.0,4.0,44,0.00,,---,0.00,VWS V14.01,2013-08-20 17:45:00,
2013-08-20 13:50:00,83.6,58.1,30.14,East,88,0.0,4.0,42,0.00,,---,0.00,VWS V14.01,2013-08-20 17:50:00,
2013-08-20 13:55:00,84.2,61.8,30.14,SSW,201,1.0,4.0,47,0.00,,---,0.00,VWS V14.01,2013-08-20 17:55:00,
2013-08-20 14:00:00,84.7,59.1,30.14,WNW,299,0.0,0.0,42,0.00,,---,0.00,VWS V14.01,2013-08-20 18:00:00,
2013-08-20 14:05:00,84.9,59.9,30.14,West,265,0.0,4.0,43,0.00,,---,0.00,VWS V14.01,2013-08-20 18:05:00,
2013-08-20 14:10:00,84.3,58.1,30.14,WSW,247,5.0,7.0,41,0.00,,---,0.00,VWS V14.01,2013-08-20 18:10:00,
2013-08-20 14:15:00,84.6,58.3,30.14,WSW,248,1.0,7.0,41,0.00,,---,0.00,VWS V14.01,2013-08-20 18:15:00,
2013-08-20 14:20:00,84.9,58.6,30.14,East,96,1.0,7.0,41,0.00,,---,0.00,VWS V14.01,2013-08-20 18:20:00,
2013-08-20 14:25:00,84.9,57.9,30.13,South,191,0.0,7.0,40,0.00,,---,0.00,VWS V14.01,2013-08-20 18:25:00,
2013-08-20 14:30:00,85.2,58.2,30.13,SW,226,1.0,1.0,40,0.00,,---,0.00,VWS V14.01,2013-08-20 18:30:00,
2013-08-20 14:35:00,85.5,57.7,30.13,WSW,238,1.0,4.0,39,0.00,,---,0.00,VWS V14.01,2013-08-20 18:35:00,
2013-08-20 14:40:00,85.0,58.7,30.13,WNW,285,2.0,7.0,41,0.00,,---,0.00,VWS V14.01,2013-08-20 18:40:00,
2013-08-20 14:45:00,84.6,57.6,30.13,NNW,342,1.0,7.0,40,0.00,,---,0.00,VWS V14.01,2013-08-20 18:45:00,
2013-08-20 14:50:00,84.8,58.5,30.13,NNW,346,2.0,7.0,41,0.00,,---,0.00,VWS V14.01,2013-08-20 18:50:00,
2013-08-20 14:55:00,85.0,58.0,30.13,NNW,330,1.0,7.0,40,0.00,,---,0.00,VWS V14.01,2013-08-20 18:55:00,
2013-08-20 15:00:00,84.9,56.5,30.13,NNE,30,0.0,1.0,38,0.00,,---,0.00,VWS V14.01,2013-08-20 19:00:00,
2013-08-20 15:05:00,84.6,59.0,30.13,NW,316,5.0,6.0,42,0.00,,---,0.00,VWS V14.01,2013-08-20 19:05:00,
2013-08-20 15:10:00,84.3,57.4,30.12,NE,36,2.0,6.0,40,0.00,,---,0.00,VWS V14.01,2013-08-20 19:10:00,
2013-08-20 15:15:00,83.8,57.6,30.12,North,4,2.0,6.0,41,0.00,,---,0.00,VWS V14.01,2013-08-20 19:15:00,
2013-08-20 15:20:00,84.6,57.6,30.12,NW,319,2.0,6.0,40,0.00,,---,0.00,VWS V14.01,2013-08-20 19:20:00,
2013-08-20 15:25:00,84.7,57.0,30.12,North,349,0.0,6.0,39,0.00,,---,0.00,VWS V14.01,2013-08-20 19:25:00,
2013-08-20 15:30:00,84.7,56.3,30.13,NW,319,1.0,2.0,38,0.00,,---,0.00,VWS V14.01,2013-08-20 19:30:00,
2013-08-20 15:35:00,84.9,56.5,30.12,NW,325,1.0,6.0,38,0.00,,---,0.00,VWS V14.01,2013-08-20 19:35:00,
2013-08-20 15:40:00,84.7,55.6,30.12,SW,219,0.0,6.0,37,0.00,,---,0.00,VWS V14.01,2013-08-20 19:40:00,
2013-08-20 15:45:00,85.2,56.8,30.12,SW,226,2.0,6.0,38,0.00,,---,0.00,VWS V14.01,2013-08-20 19:45:00,
2013-08-20 15:50:00,85.5,57.7,30.12,SW,221,3.0,6.0,39,0.00,,---,0.00,VWS V14.01,2013-08-20 19:50:00,
2013-08-20 15:55:00,85.6,55.6,30.12,NE,42,1.0,6.0,36,0.00,,---,0.00,VWS V14.01,2013-08-20 19:55:00,
2013-08-20 16:00:00,85.1,56.7,30.12,WSW,241,2.0,2.0,38,0.00,,---,0.00,VWS V14.01,2013-08-20 20:00:00,
2013-08-20 16:05:00,85.5,57.0,30.12,NW,305,4.0,4.0,38,0.00,,---,0.00,VWS V14.01,2013-08-20 20:05:00,
2013-08-20 16:10:00,85.5,55.5,30.11,SW,232,2.0,5.0,36,0.00,,---,0.00,VWS V14.01,2013-08-20 20:10:00,
2013-08-20 16:15:00,85.1,55.9,30.11,WSW,244,2.0,5.0,37,0.00,,---,0.00,VWS V14.01,2013-08-20 20:15:00,
2013-08-20 16:20:00,85.4,54.7,30.11,WNW,297,1.0,5.0,35,0.00,,---,0.00,VWS V14.01,2013-08-20 20:20:00,
2013-08-20 16:25:00,85.6,55.6,30.11,WSW,240,1.0,5.0,36,0.00,,---,0.00,VWS V14.01,2013-08-20 20:25:00,
2013-08-20 16:30:00,85.8,55.0,30.11,West,264,1.0,5.0,35,0.00,,---,0.00,VWS V14.01,2013-08-20 20:30:00,
2013-08-20 16:35:00,85.8,55.8,30.11,SW,235,1.0,5.0,36,0.00,,---,0.00,VWS V14.01,2013-08-20 20:35:00,
2013-08-20 16:40:00,85.8,55.0,30.10,West,259,1.0,5.0,35,0.00,,---,0.00,VWS V14.01,2013-08-20 20:40:00,
2013-08-20 16:45:00,86.0,55.2,30.10,West,281,0.0,5.0,35,0.00,,---,0.00,VWS V14.01,2013-08-20 20:45:00,
2013-08-20 16:50:00,86.0,53.6,30.10,West,269,1.0,5.0,33,0.00,,---,0.00,VWS V14.01,2013-08-20 20:50:00,
2013-08-20 16:55:00,85.7,55.7,30.11,West,278,1.0,7.0,36,0.00,,---,0.00,VWS V14.01,2013-08-20 20:55:00,
2013-08-20 17:00:00,85.7,54.9,30.11,SW,226,0.0,7.0,35,0.00,,---,0.00,VWS V14.01,2013-08-20 21:00:00,
2013-08-20 17:05:00,85.8,56.5,30.11,WSW,245,0.0,3.0,37,0.00,,---,0.00,VWS V14.01,2013-08-20 21:05:00,
2013-08-20 17:10:00,85.9,55.9,30.11,SSW,203,0.0,3.0,36,0.00,,---,0.00,VWS V14.01,2013-08-20 21:10:00,
2013-08-20 17:15:00,85.9,55.9,30.11,SW,220,0.0,3.0,36,0.00,,---,0.00,VWS V14.01,2013-08-20 21:15:00,
2013-08-20 17:20:00,86.0,55.2,30.11,NW,320,0.0,3.0,35,0.00,,---,0.00,VWS V14.01,2013-08-20 21:20:00,
2013-08-20 17:25:00,86.2,56.1,30.11,SW,222,0.0,3.0,36,0.00,,---,0.00,VWS V14.01,2013-08-20 21:25:00,
2013-08-20 17:30:00,86.2,55.4,30.11,SW,219,0.0,3.0,35,0.00,,---,0.00,VWS V14.01,2013-08-20 21:30:00,
2013-08-20 17:35:00,86.1,56.8,30.10,WSW,253,0.0,4.0,37,0.00,,---,0.00,VWS V14.01,2013-08-20 21:35:00,
2013-08-20 17:40:00,86.0,56.7,30.11,SSW,206,0.0,4.0,37,0.00,,---,0.00,VWS V14.01,2013-08-20 21:40:00,
2013-08-20 17:45:00,85.8,55.8,30.11,West,259,0.0,4.0,36,0.00,,---,0.00,VWS V14.01,2013-08-20 21:45:00,
2013-08-20 17:50:00,85.9,55.9,30.10,WSW,242,0.0,4.0,36,0.00,,---,0.00,VWS V14.01,2013-08-20 21:50:00,
2013-08-20 17:55:00,85.8,55.0,30.10,NW,323,0.0,4.0,35,0.00,,---,0.00,VWS V14.01,2013-08-20 21:55:00,
2013-08-20 18:00:00,85.6,55.6,30.10,SW,226,0.0,4.0,36,0.00,,---,0.00,VWS V14.01,2013-08-20 22:00:00,
2013-08-20 18:05:00,85.6,55.6,30.10,WNW,288,0.0,1.0,36,0.00,,---,0.00,VWS V14.01,2013-08-20 22:05:00,
2013-08-20 18:10:00,85.8,56.5,30.10,SW,226,0.0,1.0,37,0.00,,---,0.00,VWS V14.01,2013-08-20 22:10:00,
2013-08-20 18:15:00,85.9,57.4,30.10,SSW,195,0.0,1.0,38,0.00,,---,0.00,VWS V14.01,2013-08-20 22:15:00,
2013-08-20 18:20:00,85.7,58.6,30.10,WSW,256,0.0,1.0,40,0.00,,---,0.00,VWS V14.01,2013-08-20 22:20:00,
2013-08-20 18:25:00,85.8,57.3,30.10,WSW,243,0.0,1.0,38,0.00,,---,0.00,VWS V14.01,2013-08-20 22:25:00,
2013-08-20 18:30:00,85.6,57.1,30.10,SW,221,0.0,2.0,38,0.00,,---,0.00,VWS V14.01,2013-08-20 22:30:00,
2013-08-20 18:35:00,85.3,56.8,30.10,WSW,246,0.0,2.0,38,0.00,,---,0.00,VWS V14.01,2013-08-20 22:35:00,
2013-08-20 18:40:00,85.4,56.2,30.10,SW,227,0.0,2.0,37,0.00,,---,0.00,VWS V14.01,2013-08-20 22:40:00,
2013-08-20 18:45:00,85.0,56.6,30.10,SW,226,0.0,2.0,38,0.00,,---,0.00,VWS V14.01,2013-08-20 22:45:00,
2013-08-20 18:50:00,84.5,56.1,30.10,SW,231,0.0,2.0,38,0.00,,---,0.00,VWS V14.01,2013-08-20 22:50:00,
2013-08-20 18:55:00,84.1,55.8,30.10,SW,226,0.0,2.0,38,0.00,,---,0.00,VWS V14.01,2013-08-20 22:55:00,
2013-08-20 19:00:00,83.6,56.0,30.10,SW,221,1.0,2.0,39,0.00,,---,0.00,VWS V14.01,2013-08-20 23:00:00,
2013-08-20 19:05:00,82.6,55.9,30.10,SW,223,0.0,2.0,40,0.00,,---,0.00,VWS V14.01,2013-08-20 23:05:00,
2013-08-20 19:10:00,81.9,55.9,30.10,SW,223,0.0,2.0,41,0.00,,---,0.00,VWS V14.01,2013-08-20 23:10:00,
2013-08-20 19:15:00,81.3,56.0,30.10,WSW,242,0.0,2.0,42,0.00,,---,0.00,VWS V14.01,2013-08-20 23:15:00,
2013-08-20 19:20:00,80.9,57.6,30.10,SW,229,0.0,2.0,45,0.00,,---,0.00,VWS V14.01,2013-08-20 23:20:00,
2013-08-20 19:25:00,80.6,57.3,30.10,SW,226,0.0,2.0,45,0.00,,---,0.00,VWS V14.01,2013-08-20 23:25:00,
2013-08-20 19:30:00,80.1,60.4,30.10,NW,311,1.0,2.0,51,0.00,,---,0.00,VWS V14.01,2013-08-20 23:30:00,
2013-08-20 19:35:00,78.7,62.2,30.10,NW,308,0.0,1.0,57,0.00,,---,0.00,VWS V14.01,2013-08-20 23:35:00,
2013-08-20 19:40:00,77.5,61.6,30.10,NW,307,0.0,1.0,58,0.00,,---,0.00,VWS V14.01,2013-08-20 23:40:00,
2013-08-20 19:45:00,76.5,60.6,30.10,NW,307,0.0,1.0,58,0.00,,---,0.00,VWS V14.01,2013-08-20 23:45:00,
2013-08-20 19:50:00,75.5,60.7,30.11,NW,307,0.0,1.0,60,0.00,,---,0.00,VWS V14.01,2013-08-20 23:50:00,
2013-08-20 19:55:00,74.5,60.6,30.11,NW,307,0.0,1.0,62,0.00,,---,0.00,VWS V14.01,2013-08-20 23:55:00,
2013-08-20 20:00:00,73.7,59.9,30.11,West,267,0.0,1.0,62,0.00,,---,0.00,VWS V14.01,2013-08-21 00:00:00,
2013-08-20 20:05:00,73.1,58.9,30.11,SW,224,0.0,1.0,61,0.00,,---,0.00,VWS V14.01,2013-08-21 00:05:00,
2013-08-20 20:10:00,72.7,58.9,30.11,WSW,252,0.0,1.0,62,0.00,,---,0.00,VWS V14.01,2013-08-21 00:10:00,
2013-08-20 20:15:00,72.4,59.5,30.11,WSW,252,0.0,1.0,64,0.00,,---,0.00,VWS V14.01,2013-08-21 00:15:00,
2013-08-20 20:20:00,71.9,59.9,30.11,WSW,252,0.0,1.0,66,0.00,,---,0.00,VWS V14.01,2013-08-21 00:20:00,
2013-08-20 20:25:00,71.4,59.5,30.12,WSW,252,0.0,1.0,66,0.00,,---,0.00,VWS V14.01,2013-08-21 00:25:00,
2013-08-20 20:30:00,70.7,60.0,30.12,WSW,252,0.0,1.0,69,0.00,,---,0.00,VWS V14.01,2013-08-21 00:30:00,
2013-08-20 20:35:00,69.8,60.0,30.12,WSW,252,0.0,0.0,71,0.00,,---,0.00,VWS V14.01,2013-08-21 00:35:00,
2013-08-20 20:40:00,69.3,59.9,30.12,WSW,252,0.0,0.0,72,0.00,,---,0.00,VWS V14.01,2013-08-21 00:40:00,
2013-08-20 20:45:00,68.8,59.8,30.12,WSW,252,0.0,0.0,73,0.00,,---,0.00,VWS V14.01,2013-08-21 00:45:00,
2013-08-20 20:50:00,68.3,59.7,30.12,WSW,252,0.0,0.0,74,0.00,,---,0.00,VWS V14.01,2013-08-21 00:50:00,
2013-08-20 20:55:00,67.9,59.3,30.12,WSW,252,0.0,0.0,74,0.00,,---,0.00,VWS V14.01,2013-08-21 00:55:00,
2013-08-20 21:00:00,67.5,59.3,30.13,WSW,252,0.0,0.0,75,0.00,,---,0.00,VWS V14.01,2013-08-21 01:00:00,
2013-08-20 21:05:00,67.3,59.1,30.13,WSW,252,0.0,0.0,75,0.00,,---,0.00,VWS V14.01,2013-08-21 01:05:00,
2013-08-20 21:10:00,67.4,58.8,30.13,WNW,302,0.0,1.0,74,0.00,,---,0.00,VWS V14.01,2013-08-21 01:10:00,
2013-08-20 21:15:00,67.2,59.4,30.13,SW,220,0.0,1.0,76,0.00,,---,0.00,VWS V14.01,2013-08-21 01:15:00,
2013-08-20 21:19:00,67.1,58.5,30.14,SW,232,1.0,1.0,74,0.00,,---,0.00,VWS V14.01,2013-08-21 01:19:00,
2013-08-20 21:24:00,67.1,58.5,30.14,SW,233,0.0,1.0,74,0.00,,---,0.00,VWS V14.01,2013-08-21 01:24:00,
2013-08-20 21:29:00,67.1,58.5,30.14,SW,233,0.0,1.0,74,0.00,,---,0.00,VWS V14.01,2013-08-21 01:29:00,
2013-08-20 21:30:00,70.7,60.0,30.12,WSW,252,0.0,1.0,69,0.00,,---,0.00,VWS V14.01,2013-08-21 01:30:00,
2013-08-20 21:34:00,66.8,58.6,30.14,SW,233,0.0,0.0,75,0.00,,---,0.00,VWS V14.01,2013-08-21 01:34:00,
2013-08-20 21:39:00,66.6,58.8,30.14,SW,233,0.0,0.0,76,0.00,,---,0.00,VWS V14.01,2013-08-21 01:39:00,
2013-08-20 21:44:00,66.2,58.8,30.14,WSW,254,0.0,1.0,77,0.00,,---,0.00,VWS V14.01,2013-08-21 01:44:00,
2013-08-20 21:49:00,65.8,59.1,30.14,WSW,255,0.0,1.0,79,0.00,,---,0.00,VWS V14.01,2013-08-21 01:49:00,
2013-08-20 21:54:00,65.4,59.1,30.14,WSW,255,0.0,1.0,80,0.00,,---,0.00,VWS V14.01,2013-08-21 01:54:00,
2013-08-20 21:59:00,65.0,59.4,30.14,WSW,255,0.0,1.0,82,0.00,,---,0.00,VWS V14.01,2013-08-21 01:59:00,
2013-08-20 22:00:00,67.5,59.3,30.13,WSW,252,0.0,0.0,75,0.00,,---,0.00,VWS V14.01,2013-08-21 02:00:00,
2013-08-20 22:04:00,64.7,59.4,30.14,WSW,255,0.0,0.0,83,0.00,,---,0.00,VWS V14.01,2013-08-21 02:04:00,
2013-08-20 22:09:00,64.4,59.5,30.15,WSW,255,0.0,0.0,84,0.00,,---,0.00,VWS V14.01,2013-08-21 02:09:00,
2013-08-20 22:14:00,64.1,59.5,30.15,WSW,254,0.0,0.0,85,0.00,,---,0.00,VWS V14.01,2013-08-21 02:14:00,
2013-08-20 22:19:00,63.9,59.3,30.15,WSW,255,0.0,0.0,85,0.00,,---,0.00,VWS V14.01,2013-08-21 02:19:00,
2013-08-20 22:24:00,63.6,59.7,30.15,WSW,255,0.0,0.0,87,0.00,,---,0.00,VWS V14.01,2013-08-21 02:24:00,
2013-08-20 22:29:00,63.4,59.8,30.15,WSW,255,0.0,0.0,88,0.00,,---,0.00,VWS V14.01,2013-08-21 02:29:00,
2013-08-20 22:30:00,67.0,58.8,30.14,SW,233,0.0,1.0,75,0.00,,---,0.00,VWS V14.01,2013-08-21 02:30:00,
2013-08-20 22:34:00,63.2,59.6,30.15,WSW,254,0.0,1.0,88,0.00,,---,0.00,VWS V14.01,2013-08-21 02:34:00,
2013-08-20 22:39:00,63.3,59.7,30.15,WSW,255,0.0,1.0,88,0.00,,---,0.00,VWS V14.01,2013-08-21 02:39:00,
2013-08-20 22:44:00,63.7,59.8,30.15,WSW,255,0.0,1.0,87,0.00,,---,0.00,VWS V14.01,2013-08-21 02:44:00,
2013-08-20 22:49:00,63.7,59.8,30.15,WSW,254,0.0,1.0,87,0.00,,---,0.00,VWS V14.01,2013-08-21 02:49:00,
2013-08-20 22:54:00,63.7,59.8,30.15,West,279,0.0,1.0,87,0.00,,---,0.00,VWS V14.01,2013-08-21 02:54:00,
2013-08-20 22:59:00,63.8,59.5,30.15,West,279,0.0,1.0,86,0.00,,---,0.00,VWS V14.01,2013-08-21 02:59:00,
2013-08-20 23:00:00,65.0,59.4,30.14,WSW,254,0.0,1.0,82,0.00,,---,0.00,VWS V14.01,2013-08-21 03:00:00,
2013-08-20 23:04:00,63.8,59.5,30.15,West,279,0.0,0.0,86,0.00,,---,0.00,VWS V14.01,2013-08-21 03:04:00,
2013-08-20 23:09:00,63.8,59.5,30.15,West,279,0.0,0.0,86,0.00,,---,0.00,VWS V14.01,2013-08-21 03:09:00,
2013-08-20 23:14:00,63.7,59.8,30.15,West,279,0.0,0.0,87,0.00,,---,0.00,VWS V14.01,2013-08-21 03:14:00,
2013-08-20 23:19:00,63.4,59.5,30.15,West,279,0.0,0.0,87,0.00,,---,0.00,VWS V14.01,2013-08-21 03:19:00,
2013-08-20 23:24:00,63.3,59.4,30.15,West,279,0.0,0.0,87,0.00,,---,0.00,VWS V14.01,2013-08-21 03:24:00,
2013-08-20 23:29:00,63.3,59.7,30.15,West,279,0.0,0.0,88,0.00,,---,0.00,VWS V14.01,2013-08-21 03:29:00,
2013-08-20 23:30:00,63.3,60.0,30.15,WSW,255,0.0,0.0,89,0.00,,---,0.00,VWS V14.01,2013-08-21 03:30:00,
2013-08-20 23:34:00,63.2,59.6,30.16,West,279,0.0,0.0,88,0.00,,---,0.00,VWS V14.01,2013-08-21 03:34:00,
2013-08-20 23:39:00,63.0,59.7,30.16,West,279,0.0,0.0,89,0.00,,---,0.00,VWS V14.01,2013-08-21 03:39:00,
2013-08-20 23:44:00,62.7,59.7,30.16,West,279,0.0,0.0,90,0.00,,---,0.00,VWS V14.01,2013-08-21 03:44:00,
2013-08-20 23:49:00,62.6,59.9,30.16,West,279,0.0,0.0,91,0.00,,---,0.00,VWS V14.01,2013-08-21 03:49:00,
2013-08-20 23:54:00,62.6,60.2,30.16,West,279,0.0,0.0,92,0.00,,---,0.00,VWS V14.01,2013-08-21 03:54:00,
2013-08-20 23:59:00,62.5,60.2,30.16,West,279,0.0,0.0,92,0.00,,---,0.00,VWS V14.01,2013-08-21 03:59:00,